This is the latest recevied weather packets stored in our database for station/object SR9WXM. If no packets are shown the sender has not sent any weather packets the latest 1 day(s).
| Time | Temp. | Humidity | Pressure | Rain* | Wind** | Luminosity | Snow |
|---|---|---|---|---|---|---|---|
| 1778016001 | 13.33° C | 100% | 0 hPa | - | 7.6 m/s, 195° | - | - |
| 1778015760 | 13.33° C | 100% | 0 hPa | - | 7.15 m/s, 197° | - | - |
| 1778015523 | 13.33° C | 100% | 0 hPa | - | 6.26 m/s, 184° | - | - |
| 1778015281 | 13.33° C | 100% | 0 hPa | - | 8.05 m/s, 184° | - | - |
| 1778015039 | 13.33° C | 100% | 0 hPa | - | 7.15 m/s, 186° | - | - |
| 1778014799 | 13.33° C | 100% | 0 hPa | - | 7.15 m/s, 193° | - | - |
| 1778014558 | 13.33° C | 100% | 0 hPa | - | 8.05 m/s, 195° | - | - |
| 1778014318 | 13.33° C | 100% | 0 hPa | - | 6.71 m/s, 193° | - | - |
| 1778014078 | 13.33° C | 100% | 0 hPa | - | 6.71 m/s, 196° | - | - |
| 1778013836 | 13.33° C | 100% | 0 hPa | - | 6.26 m/s, 198° | - | - |
| 1778013596 | 13.33° C | 100% | 0 hPa | - | 6.71 m/s, 200° | - | - |
| 1778013356 | 13.33° C | 100% | 0 hPa | - | 6.26 m/s, 202° | - | - |
| 1778013116 | 13.89° C | 100% | 0 hPa | - | 6.26 m/s, 194° | - | - |
| 1778012876 | 13.89° C | 100% | 0 hPa | - | 8.05 m/s, 190° | - | - |
| 1778012634 | 13.89° C | 100% | 0 hPa | - | 5.81 m/s, 188° | - | - |
| 1778012394 | 13.89° C | 100% | 0 hPa | - | 6.26 m/s, 187° | - | - |
| 1778012154 | 13.89° C | 100% | 0 hPa | - | 6.26 m/s, 185° | - | - |
| 1778011913 | 13.89° C | 100% | 0 hPa | - | 6.71 m/s, 180° | - | - |
| 1778011674 | 13.89° C | 100% | 0 hPa | - | 6.71 m/s, 189° | - | - |
| 1778011432 | 13.89° C | 100% | 0 hPa | - | 6.71 m/s, 196° | - | - |
| 1778011192 | 13.89° C | 100% | 0 hPa | - | 6.26 m/s, 202° | - | - |
| 1778010952 | 14.44° C | 100% | 0 hPa | - | 5.36 m/s, 189° | - | - |
| 1778010712 | 14.44° C | 100% | 0 hPa | - | 6.26 m/s, 202° | - | - |
| 1778010472 | 14.44° C | 100% | 0 hPa | - | 5.81 m/s, 191° | - | - |
| 1778010230 | 14.44° C | 100% | 0 hPa | - | 6.26 m/s, 187° | - | - |
* Rain since midnight (hover to see other rain measurements)
** Current wind speed in m/s (hover to see current wind gust speed)